Volver al catálogo

SL-16 DEB

ActivoLEO
NORAD 22605·DEBRIS·🇷🇺 Russia

Lanzado Mar 26, 1993 desde Baikonur Cosmodrome

Loading…

Próximos Pases (próximas 24 horas)

TLE

ActualizadoSource: Space-Track

Época: Sep 13, 2026, 10:11 UTC

1 22605U 93016P   26256.42464387  .00000089  00000-0  99582-4 0  9997
2 22605  70.9975 160.6514 0131699 269.0922 205.7448 13.91182229696555

Sigue SL-16 DEB en tiempo real con AllMySat

Download on the App Store